TimeEST,TemperatureF,Dew PointF,Humidity,Sea Level PressureIn,VisibilityMPH,Wind Direction,Wind SpeedMPH,Gust SpeedMPH,PrecipitationIn,Events,Conditions,WindDirDegrees,DateUTC
12:51 AM,35.1,30.9,85,30.37,9.0,North,4.6,-,N/A,,Partly Cloudy,350,2012-11-16 05:51:00
1:51 AM,34.0,30.0,85,30.36,9.0,Calm,Calm,-,N/A,,Clear,0,2012-11-16 06:51:00
2:51 AM,32.0,30.2,93,30.36,8.0,North,3.5,-,N/A,,Clear,350,2012-11-16 07:51:00
3:51 AM,30.2,28.4,93,30.36,7.0,North,3.5,-,N/A,,Clear,360,2012-11-16 08:51:00
4:51 AM,30.9,28.9,92,30.40,5.0,Calm,Calm,-,N/A,,Partly Cloudy,0,2012-11-16 09:51:00
5:51 AM,30.0,28.9,96,30.42,5.0,North,4.6,-,N/A,,Partly Cloudy,350,2012-11-16 10:51:00
6:51 AM,30.2,28.4,93,30.39,4.0,NNE,4.6,-,N/A,,Mostly Cloudy,30,2012-11-16 11:51:00
7:51 AM,30.9,28.9,92,30.44,5.0,NNW,4.6,-,N/A,,Partly Cloudy,330,2012-11-16 12:51:00
8:51 AM,34.0,30.9,89,30.45,5.0,NNW,4.6,-,N/A,,Partly Cloudy,340,2012-11-16 13:51:00
9:51 AM,39.9,34.0,79,30.45,6.0,North,3.5,-,N/A,,Haze,10,2012-11-16 14:51:00
10:25 AM,44.6,35.6,71,30.44,8.0,Variable,6.9,-,N/A,,Partly Cloudy,0,2012-11-16 15:25:00
10:27 AM,46.4,35.6,66,30.44,9.0,ENE,6.9,-,N/A,,Scattered Clouds,60,2012-11-16 15:27:00
10:51 AM,45.0,34.0,65,30.46,10.0,ENE,8.1,-,N/A,,Scattered Clouds,70,2012-11-16 15:51:00
11:51 AM,46.9,34.0,61,30.45,10.0,ENE,4.6,-,N/A,,Scattered Clouds,60,2012-11-16 16:51:00
12:51 PM,48.0,34.0,58,30.43,10.0,Variable,3.5,-,N/A,,Scattered Clouds,0,2012-11-16 17:51:00
1:51 PM,50.0,34.0,54,30.43,10.0,Variable,3.5,-,N/A,,Clear,0,2012-11-16 18:51:00
2:51 PM,51.1,33.1,50,30.43,10.0,NNE,8.1,-,N/A,,Clear,20,2012-11-16 19:51:00
3:51 PM,51.1,32.0,48,30.43,10.0,North,6.9,-,N/A,,Clear,10,2012-11-16 20:51:00
4:51 PM,48.9,32.0,52,30.44,10.0,North,5.8,-,N/A,,Clear,350,2012-11-16 21:51:00
5:51 PM,48.0,30.9,52,30.46,10.0,North,4.6,-,N/A,,Clear,350,2012-11-16 22:51:00
6:51 PM,45.0,32.0,60,30.48,10.0,North,3.5,-,N/A,,Clear,360,2012-11-16 23:51:00
7:51 PM,42.1,32.0,67,30.49,10.0,North,4.6,-,N/A,,Clear,10,2012-11-17 00:51:00
8:51 PM,41.0,33.1,73,30.49,10.0,North,5.8,-,N/A,,Clear,10,2012-11-17 01:51:00
9:51 PM,39.9,33.1,77,30.50,9.0,NNE,4.6,-,N/A,,Clear,20,2012-11-17 02:51:00
10:51 PM,39.9,32.0,73,30.49,8.0,NNE,3.5,-,N/A,,Clear,20,2012-11-17 03:51:00
11:51 PM,37.9,30.9,76,30.50,8.0,Calm,Calm,-,N/A,,Clear,0,2012-11-17 04:51:00